GW3053 Weather Reports


time (UTC)temp
C
wind
direction
speed
KPH
gust
KPH
rain 1hr
cm
rain 24hr
cm
rain mn
cm
humidity
%
barometer
mb
20260506222024 25 227 11.3 20.9 0.00 0.00 0.00 46 1016.5
20260506221539 25 221 14.5 20.9 0.00 0.00 0.00 46 1016.4
20260506221027 25 230 12.9 20.9 0.00 0.00 0.00 47 1016.5
20260506220524 25 256 12.9 20.9 0.00 0.00 0.00 46 1016.5
20260506220038 25 251 9.7 20.9 0.00 0.00 0.00 45 1016.7
20260506215523 25 252 12.9 17.7 0.00 0.00 0.00 45 1016.8
20260506215023 25 254 4.8 16.1 0.00 0.00 0.00 45 1016.8
20260506214542 25 215 8.0 17.7 0.00 0.00 0.00 46 1016.8
20260506214023 25 237 4.8 17.7 0.00 0.00 0.00 45 1016.9
20260506213523 25 203 1.6 17.7 0.00 0.00 0.00 44 1016.9
20260506213044 25 285 11.3 17.7 0.00 0.00 0.00 45 1017.0
20260506212523 25 253 6.4 16.1 0.00 0.00 0.00 44 1016.9
20260506212027 25 298 8.0 14.5 0.00 0.00 0.00 45 1016.8
20260506211540 25 244 6.4 14.5 0.00 0.00 0.00 45 1016.9
20260506211027 25 275 0.0 14.5 0.00 0.00 0.00 39 1017.0
20260506210527 25 280 8.0 14.5 0.00 0.00 0.00 39 1017.0
20260506210040 25 294 6.4 14.5 0.00 0.00 0.00 39 1017.1
20260506205523 25 0 0.0 8.0 0.00 0.00 0.00 41 1017.2
20260506205024 25 0 3.2 12.9 0.00 0.00 0.00 40 1017.2
20260506204538 25 47 4.8 16.1 0.00 0.00 0.00 40 1017.3
20260506204026 25 344 6.4 17.7 0.00 0.00 0.00 39 1017.2
20260506203526 25 250 6.4 17.7 0.00 0.00 0.00 41 1017.2
20260506203040 25 305 8.0 16.1 0.00 0.00 0.00 40 1017.3
20260506202526 25 313 9.7 17.7 0.00 0.00 0.00 44 1017.3
20260506202024 24 0 3.2 17.7 0.00 0.00 0.00 41 1017.3
20260506201538 25 344 4.8 17.7 0.00 0.00 0.00 42 1017.3
20260506201025 25 295 11.3 17.7 0.00 0.00 0.00 43 1017.4
20260506200527 23 314 1.6 16.1 0.00 0.00 0.00 44 1017.5
20260506200037 24 291 4.8 17.7 0.00 0.00 0.00 44 1017.7
20260506195523 23 30 3.2 17.7 0.00 0.00 0.00 44 1017.5
20260506195027 24 349 6.4 17.7 0.00 0.00 0.00 43 1017.5
20260506194556 23 0 1.6 14.5 0.00 0.00 0.00 45 1017.6
20260506194022 24 314 4.8 14.5 0.00 0.00 0.00 44 1017.7
20260506193523 23 26 3.2 14.5 0.00 0.00 0.00 45 1017.8
20260506193039 23 135 6.4 16.1 0.00 0.00 0.00 46 1017.7
20260506192527 23 128 8.0 16.1 0.00 0.00 0.00 45 1017.8
20260506192026 23 323 3.2 14.5 0.00 0.00 0.00 47 1017.8
20260506191539 23 30 6.4 16.1 0.00 0.00 0.00 47 1017.9
20260506191026 23 12 1.6 16.1 0.00 0.00 0.00 47 1018.0
20260506190530 23 25 6.4 16.1 0.00 0.00 0.00 47 1018.1
20260506190039 22 51 1.6 17.7 0.00 0.00 0.00 49 1018.1
20260506185526 23 38 6.4 17.7 0.00 0.00 0.00 48 1018.3
20260506185026 23 16 8.0 17.7 0.00 0.00 0.00 49 1018.4
20260506184543 23 5 8.0 17.7 0.00 0.00 0.00 48 1018.4
20260506184026 22 24 4.8 14.5 0.00 0.00 0.00 48 1018.4
20260506183526 22 329 1.6 17.7 0.00 0.00 0.00 51 1018.4
20260506183039 21 16 4.8 17.7 0.00 0.00 0.00 52 1018.5
20260506182525 21 302 9.7 17.7 0.00 0.00 0.00 52 1018.5
20260506182026 21 315 3.2 8.0 0.00 0.00 0.00 55 1018.6
20260506181544 20 0 0.0 8.0 0.00 0.00 0.00 57 1018.7
20260506181027 20 209 1.6 14.5 0.00 0.00 0.00 57 1018.8
20260506180529 20 344 6.4 14.5 0.00 0.00 0.00 56 1018.8
20260506180043 21 350 4.8 16.1 0.00 0.00 0.00 57 1018.8
20260506175527 20 15 8.0 16.1 0.00 0.00 0.00 60 1018.8
20260506175025 19 5 6.4 17.7 0.00 0.00 0.00 61 1018.9
20260506174539 19 19 6.4 17.7 0.00 0.00 0.00 60 1018.9
20260506174027 19 47 9.7 17.7 0.00 0.00 0.00 62 1019.0
20260506173527 18 341 4.8 14.5 0.00 0.00 0.00 63 1018.9
20260506173041 18 311 3.2 14.5 0.00 0.00 0.00 63 1018.9
20260506172527 18 331 6.4 14.5 0.00 0.00 0.00 64 1018.9
20260506172027 18 27 6.4 16.1 0.00 0.00 0.00 65 1018.9
20260506171553 18 326 6.4 16.1 0.00 0.00 0.00 66 1018.9
20260506171027 17 29 8.0 16.1 0.00 0.00 0.00 66 1018.9
20260506170525 16 302 3.2 14.5 0.00 0.00 0.00 69 1019.1
20260506170043 16 269 3.2 12.9 0.00 0.00 0.00 68 1019.1
20260506165527 16 323 3.2 12.9 0.00 0.00 0.00 71 1019.1
20260506165027 16 209 4.8 12.9 0.00 0.00 0.00 71 1019.2
20260506164540 15 299 6.4 14.5 0.00 0.00 0.00 71 1019.3
20260506164027 15 291 4.8 14.5 0.00 0.00 0.00 73 1019.3
20260506163526 15 289 8.0 14.5 0.00 0.00 0.00 74 1019.4
20260506163043 15 294 4.8 14.5 0.00 0.00 0.00 74 1019.5
20260506162524 14 305 6.4 14.5 0.00 0.00 0.00 76 1019.5
20260506162025 14 322 6.4 12.9 0.00 0.00 0.00 78 1019.5
20260506161538 13 342 3.2 8.0 0.00 0.00 0.00 79 1019.6
20260506161024 13 5 3.2 6.4 0.00 0.00 0.00 81 1019.8
20260506160523 12 360 1.6 6.4 0.00 0.00 0.00 83 1019.8
20260506160039 12 0 1.6 6.4 0.00 0.00 0.00 85 1019.8
20260506155523 11 331 1.6 6.4 0.00 0.00 0.00 85 1019.9
20260506155028 11 0 0.0 6.4 0.00 0.00 0.00 86 1020.0
20260506154601 11 348 1.6 6.4 0.00 0.00 0.00 88 1020.0
20260506154025 10 0 0.0 1.6 0.00 0.00 0.00 89 1020.0
20260506153523 10 0 0.0 1.6 0.00 0.00 0.00 89 1020.0
20260506153041 10 0 0.0 3.2 0.00 0.00 0.00 89 1020.0
20260506152524 9 0 0.0 3.2 0.00 0.00 0.00 90 1020.0
20260506152027 9 0 0.0 3.2 0.00 0.00 0.00 90 1019.9
20260506151540 9 321 0.0 3.2 0.00 0.00 0.00 90 1020.0
20260506151028 9 298 0.0 1.6 0.00 0.00 0.00 90 1020.0
20260506150524 9 0 0.0 1.6 0.00 0.00 0.00 90 1020.0
20260506150039 8 0 0.0 3.2 0.00 0.00 0.00 90 1020.1
20260506145531 8 0 0.0 3.2 0.00 0.00 0.00 90 1020.0
20260506145025 8 298 0.0 3.2 0.00 0.00 0.00 90 1020.0
20260506144546 8 296 1.6 3.2 0.00 0.00 0.00 89 1020.0
20260506144023 8 0 0.0 3.2 0.00 0.00 0.00 90 1020.0
20260506143525 8 0 0.0 0.0 0.00 0.00 0.00 89 1019.8
20260506143038 8 0 0.0 0.0 0.00 0.00 0.00 89 1019.8
20260506142526 8 0 0.0 0.0 0.00 0.00 0.00 89 1019.6
20260506142026 8 0 0.0 0.0 0.00 0.00 0.00 89 1019.8
20260506141539 7 0 0.0 0.0 0.00 0.00 0.00 89 1019.6
20260506141027 7 0 0.0 0.0 0.00 0.00 0.00 90 1019.6
20260506140525 7 0 0.0 0.0 0.00 0.00 0.00 90 1019.6
20260506140054 7 0 0.0 0.0 0.00 0.00 0.00 90 1019.6
20260506135525 7 0 0.0 0.0 0.00 0.00 0.00 90 1019.5
20260506135026 7 0 0.0 0.0 0.00 0.00 0.00 90 1019.5
20260506134539 7 0 0.0 0.0 0.00 0.00 0.00 90 1019.3
20260506134024 7 0 0.0 0.0 0.00 0.00 0.00 91 1019.3
20260506133527 7 0 0.0 0.0 0.00 0.00 0.00 91 1019.3
20260506133045 7 0 0.0 0.0 0.00 0.00 0.00 90 1019.2
20260506132523 7 0 0.0 0.0 0.00 0.00 0.00 91 1019.2
20260506132025 7 0 0.0 0.0 0.00 0.00 0.00 91 1019.0
20260506131538 6 0 0.0 0.0 0.00 0.00 0.00 91 1019.1
20260506131023 6 0 0.0 0.0 0.00 0.00 0.00 91 1019.1
20260506130528 6 0 0.0 0.0 0.00 0.00 0.00 91 1018.9
20260506130037 6 0 0.0 0.0 0.00 0.00 0.00 91 1019.0
20260506125527 6 0 0.0 0.0 0.00 0.00 0.00 91 1018.9
20260506125026 6 0 0.0 0.0 0.00 0.00 0.00 91 1018.9
20260506124541 6 0 0.0 0.0 0.00 0.00 0.00 91 1018.8
20260506124026 6 0 0.0 0.0 0.00 0.00 0.00 91 1018.9
20260506123525 6 0 0.0 0.0 0.00 0.00 0.00 91 1018.9
20260506123041 6 0 0.0 0.0 0.00 0.00 0.00 91 1018.9
20260506122526 6 0 0.0 0.0 0.00 0.00 0.00 91 1018.8
20260506122023 6 0 0.0 0.0 0.00 0.00 0.00 90 1018.8
20260506121540 6 0 0.0 0.0 0.00 0.00 0.00 90 1018.6
20260506121028 6 0 0.0 0.0 0.00 0.00 0.00 90 1018.6
20260506120527 6 0 0.0 0.0 0.00 0.00 0.00 90 1018.6
20260506120040 6 0 0.0 0.0 0.00 0.00 0.00 90 1018.6
20260506115524 6 0 0.0 0.0 0.00 0.00 0.00 90 1018.5
20260506115023 6 0 0.0 0.0 0.00 0.00 0.00 90 1018.5
20260506114540 6 0 0.0 0.0 0.00 0.00 0.00 90 1018.5
20260506114030 6 0 0.0 0.0 0.00 0.00 0.00 90 1018.5
20260506113527 6 0 0.0 0.0 0.00 0.00 0.00 90 1018.5
20260506113047 6 0 0.0 3.2 0.00 0.00 0.00 90 1018.5
20260506112524 6 0 0.0 3.2 0.00 0.00 0.00 90 1018.5
20260506112028 6 114 0.0 3.2 0.00 0.00 0.00 90 1018.6
20260506111539 6 0 0.0 1.6 0.00 0.00 0.00 90 1018.6
20260506111025 6 0 0.0 0.0 0.00 0.00 0.00 90 1018.5
20260506110526 6 0 0.0 1.6 0.00 0.00 0.00 90 1018.6
20260506110039 6 0 0.0 1.6 0.00 0.00 0.00 90 1018.6
20260506105525 6 0 0.0 1.6 0.00 0.00 0.00 90 1018.5
20260506105026 6 0 0.0 1.6 0.00 0.00 0.00 89 1018.5
20260506104545 7 0 0.0 1.6 0.00 0.00 0.00 90 1018.5
20260506104024 6 0 0.0 1.6 0.00 0.00 0.00 90 1018.5
20260506103524 6 0 0.0 0.0 0.00 0.00 0.00 90 1018.5
20260506103041 7 0 0.0 3.2 0.00 0.00 0.00 89 1018.5
20260506102523 7 0 0.0 3.2 0.00 0.00 0.00 89 1018.6
20260506102028 7 0 0.0 0.0 0.00 0.00 0.00 89 1018.6
20260506101548 7 0 0.0 0.0 0.00 0.00 0.00 89 1018.6
20260506101026 7 0 0.0 0.0 0.00 0.00 0.00 89 1018.6
20260506100526 7 0 0.0 0.0 0.00 0.00 0.00 89 1018.6
20260506100040 7 0 0.0 0.0 0.00 0.00 0.00 89 1018.5
20260506095526 7 0 0.0 0.0 0.00 0.00 0.00 89 1018.5
20260506095027 7 0 0.0 0.0 0.00 0.00 0.00 89 1018.6
20260506094540 7 0 0.0 0.0 0.00 0.00 0.00 89 1018.5
20260506094026 7 0 0.0 0.0 0.00 0.00 0.00 89 1018.5
20260506093526 7 0 0.0 0.0 0.00 0.00 0.00 89 1018.5
20260506093038 7 0 0.0 0.0 0.00 0.00 0.00 89 1018.5
20260506092528 7 0 0.0 3.2 0.00 0.00 0.00 89 1018.5
20260506092026 7 0 0.0 4.8 0.00 0.00 0.00 89 1018.4
20260506091538 7 0 0.0 4.8 0.00 0.00 0.00 89 1018.3
20260506091026 7 104 1.6 4.8 0.00 0.00 0.00 89 1018.4
20260506090529 7 0 0.0 4.8 0.00 0.00 0.00 89 1018.4
20260506090037 7 0 0.0 3.2 0.00 0.00 0.00 89 1018.3
20260506085526 7 91 0.0 0.0 0.00 0.00 0.00 89 1018.3
20260506085027 7 0 0.0 0.0 0.00 0.00 0.00 89 1018.2
20260506084543 7 0 0.0 1.6 0.00 0.00 0.00 89 1018.4
20260506084026 7 0 0.0 1.6 0.00 0.00 0.00 89 1018.3
20260506083525 7 109 0.0 1.6 0.00 0.00 0.00 89 1018.3
20260506083041 7 0 0.0 3.2 0.00 0.00 0.00 89 1018.4
20260506082525 7 0 0.0 3.2 0.00 0.00 0.00 89 1018.4
20260506082026 7 117 0.0 3.2 0.00 0.00 0.00 89 1018.3
20260506081538 7 0 0.0 0.0 0.00 0.00 0.00 89 1018.3
20260506081030 8 0 0.0 0.0 0.00 0.00 0.00 89 1018.3
20260506080528 8 0 0.0 0.0 0.00 0.00 0.00 88 1018.3
20260506073526 8 0 0.0 0.0 0.00 0.00 0.00 88 1018.1
20260506073039 8 0 0.0 0.0 0.00 0.00 0.00 88 1018.1
20260506072525 8 0 0.0 0.0 0.00 0.00 0.00 88 1018.1
20260506072026 8 0 0.0 0.0 0.00 0.00 0.00 88 1018.1
20260506071542 8 0 0.0 0.0 0.00 0.00 0.00 88 1018.1
20260506071028 8 0 0.0 0.0 0.00 0.00 0.00 88 1017.9
20260506070526 8 0 0.0 0.0 0.00 0.00 0.00 88 1017.8
20260506062025 9 0 0.0 0.0 0.00 0.00 0.00 86 1017.3
20260506061538 10 0 0.0 0.0 0.00 0.00 0.00 86 1017.3
20260506061026 10 0 0.0 0.0 0.00 0.00 0.00 86 1017.3
20260506060526 10 0 0.0 0.0 0.00 0.00 0.00 86 1017.3
20260506051024 10 0 0.0 0.0 0.00 0.00 0.00 85 1017.0
20260506050528 10 0 0.0 0.0 0.00 0.00 0.00 85 1017.0
20260506045026 10 0 0.0 3.2 0.00 0.00 0.00 83 1016.8
20260506044539 10 0 0.0 3.2 0.00 0.00 0.00 83 1016.8
20260506044025 11 0 0.0 3.2 0.00 0.00 0.00 81 1016.7
20260506043528 11 0 0.0 4.8 0.00 0.00 0.00 83 1016.5
20260506043038 11 0 0.0 4.8 0.00 0.00 0.00 83 1016.6
20260506042526 11 117 1.6 4.8 0.00 0.00 0.00 83 1016.4
20260506042025 11 126 0.0 3.2 0.00 0.00 0.00 83 1016.4
20260506041542 11 0 0.0 1.6 0.00 0.00 0.00 82 1016.3
20260506041025 11 0 0.0 3.2 0.00 0.00 0.00 81 1016.2
20260506040526 11 0 0.0 4.8 0.00 0.00 0.00 80 1016.2
20260506040042 12 114 1.6 4.8 0.00 0.00 0.00 79 1016.1
20260506035525 12 126 1.6 4.8 0.00 0.00 0.00 79 1016.0
20260506035026 12 109 1.6 4.8 0.00 0.00 0.00 78 1016.0
20260506034538 12 105 0.0 3.2 0.00 0.00 0.00 77 1015.9
20260506034026 12 0 0.0 0.0 0.00 0.00 0.00 76 1015.8
20260506033524 13 0 0.0 0.0 0.00 0.00 0.00 75 1015.7
20260506033041 13 0 0.0 0.0 0.00 0.00 0.00 73 1015.7
20260506032525 13 0 0.0 3.2 0.00 0.00 0.00 73 1015.7
20260506032024 13 0 0.0 3.2 0.00 0.00 0.00 73 1015.6
20260506031538 13 0 0.0 3.2 0.00 0.00 0.00 72 1015.4
20260506031024 13 0 0.0 6.4 0.00 0.00 0.00 72 1015.3
20260506030525 14 121 0.0 6.4 0.00 0.00 0.00 71 1015.2
20260506030037 14 175 0.0 8.0 0.00 0.00 0.00 71 1015.0
20260506025524 14 0 1.6 8.0 0.00 0.00 0.00 71 1014.9
20260506025027 14 215 1.6 9.7 0.00 0.00 0.00 70 1014.9
20260506024542 14 180 3.2 9.7 0.00 0.00 0.00 70 1014.9
20260506024027 15 236 1.6 6.4 0.00 0.00 0.00 69 1014.7
20260506023524 15 0 1.6 12.9 0.00 0.00 0.00 69 1014.7
20260506023051 15 0 1.6 12.9 0.00 0.00 0.00 69 1014.7
20260506022524 15 215 3.2 12.9 0.00 0.00 0.00 68 1014.7
20260506022024 15 240 4.8 9.7 0.00 0.00 0.00 68 1014.6
20260506021543 15 213 3.2 12.9 0.00 0.00 0.00 68 1014.6
20260506021028 15 180 3.2 12.9 0.00 0.00 0.00 68 1014.6
20260506020526 15 230 4.8 14.5 0.00 0.00 0.00 68 1014.5
20260506020039 15 212 6.4 14.5 0.00 0.00 0.00 66 1014.5
20260506015525 15 242 3.2 19.3 0.00 0.00 0.00 66 1014.4
20260506015029 15 244 9.7 19.3 0.00 0.00 0.00 65 1014.4
20260506014540 15 246 9.7 19.3 0.00 0.00 0.00 64 1014.5
20260506014024 16 222 8.0 19.3 0.00 0.00 0.00 64 1014.4
20260506013524 16 257 8.0 19.3 0.00 0.00 0.00 63 1014.5
20260506013037 16 232 11.3 17.7 0.00 0.00 0.00 65 1014.4
20260506012524 16 267 9.7 17.7 0.00 0.00 0.00 64 1014.5
20260506012025 16 246 8.0 19.3 0.00 0.00 0.00 64 1014.5
20260506011540 16 220 8.0 22.5 0.00 0.00 0.00 65 1014.6
20260506011025 16 252 9.7 22.5 0.00 0.00 0.00 64 1014.6
20260506010526 16 279 9.7 17.7 0.00 0.00 0.00 63 1014.5
20260506010049 16 267 6.4 19.3 0.00 0.00 0.00 63 1014.5
20260506005524 16 221 9.7 19.3 0.00 0.00 0.00 62 1014.6
20260506005024 16 229 9.7 20.9 0.00 0.00 0.00 62 1014.6
20260506004543 16 221 8.0 20.9 0.00 0.00 0.00 62 1014.5
20260506004025 16 215 11.3 20.9 0.00 0.00 0.00 62 1014.4
20260506003525 16 259 12.9 22.5 0.00 0.00 0.00 61 1014.5
20260506003038 16 242 9.7 22.5 0.00 0.00 0.00 61 1014.5
20260506002523 16 201 12.9 20.9 0.00 0.00 0.00 62 1014.4
20260506002024 17 244 9.7 20.9 0.00 0.00 0.00 60 1014.4
20260506001544 17 243 11.3 20.9 0.00 0.00 0.00 61 1014.5
20260506001024 17 273 11.3 24.1 0.00 0.00 0.00 61 1014.4
20260506000524 17 237 14.5 24.1 0.00 0.00 0.00 61 1014.6
20260506000037 17 192 11.3 20.9 0.00 0.00 0.00 60 1014.5
20260505235526 17 228 14.5 20.9 0.00 0.00 0.00 60 1014.4
20260505235027 17 238 12.9 19.3 0.00 0.00 0.00 59 1014.4
20260505234601 18 227 11.3 17.7 0.00 0.00 0.00 59 1014.4
20260505234026 18 286 8.0 17.7 0.00 0.00 0.00 59 1014.4
20260505233525 18 203 9.7 16.1 0.00 0.00 0.00 58 1014.4
20260505233042 18 188 9.7 19.3 0.00 0.00 0.00 59 1014.4
20260505232526 18 207 11.3 19.3 0.00 0.00 0.00 58 1014.5
20260505232026 18 208 9.7 17.7 0.00 0.00 0.00 58 1014.5
20260505231539 18 196 6.4 17.7 0.00 0.00 0.00 56 1014.6
20260505231024 18 252 11.3 17.7 0.00 0.00 0.00 54 1014.4
20260505230526 18 253 9.7 17.7 0.00 0.00 0.00 57 1014.4
20260505230038 18 243 11.3 24.1 0.00 0.00 0.00 57 1014.5
20260505225525 18 231 8.0 24.1 0.00 0.00 0.00 57 1014.5
20260505225025 18 225 12.9 22.5 0.00 0.00 0.00 56 1014.6
20260505224539 18 306 6.4 16.1 0.00 0.00 0.00 56 1014.6
20260505224025 18 275 4.8 17.7 0.00 0.00 0.00 57 1014.6
20260505223528 18 294 4.8 17.7 0.00 0.00 0.00 56 1014.7
20260505223040 18 239 9.7 17.7 0.00 0.00 0.00 56 1014.6
20260505222526 18 216 4.8 17.7 0.00 0.00 0.00 57 1014.7